Time,TemperatureF,DewpointF,PressureIn,WindDirection,WindDirectionDegrees,WindSpeedMPH,WindSpeedGustMPH,Humidity,HourlyPrecipIn,Conditions,Clouds,dailyrainin,SoftwareType,DateUTC
2013-10-17 00:00:00,31.0,24.0,-100.00,WSW,241,6.0,7.0,75,0.00,,,0.00,,2013-10-17 06:00:00,
2013-10-17 00:42:00,31.0,24.0,-100.00,WSW,241,6.0,7.0,75,0.00,,,0.00,,2013-10-17 06:42:00,
2013-10-17 00:52:00,31.0,24.0,-100.00,WSW,241,6.0,7.0,75,0.00,,,0.00,,2013-10-17 06:52:00,
2013-10-17 01:00:00,32.0,23.0,-100.00,SW,236,4.0,6.0,70,0.00,,,0.00,,2013-10-17 07:00:00,
2013-10-17 01:52:00,32.0,23.0,-100.00,SW,236,4.0,6.0,70,0.00,,,0.00,,2013-10-17 07:52:00,
2013-10-17 02:00:00,32.0,24.0,-100.00,NNW,343,1.0,1.0,71,0.00,,,0.00,,2013-10-17 08:00:00,
2013-10-17 02:42:00,32.0,24.0,-100.00,NNW,343,1.0,1.0,71,0.00,,,0.00,,2013-10-17 08:42:00,
2013-10-17 02:52:00,32.0,24.0,-100.00,NNW,343,1.0,1.0,71,0.00,,,0.00,,2013-10-17 08:52:00,
2013-10-17 03:00:00,31.0,25.0,-100.00,SSW,208,2.0,3.0,79,0.00,,,0.00,,2013-10-17 09:00:00,
2013-10-17 03:53:00,31.0,25.0,-100.00,SSW,208,2.0,3.0,79,0.00,,,0.00,,2013-10-17 09:53:00,
2013-10-17 04:00:00,30.0,25.0,-100.00,West,268,2.0,3.0,82,0.00,,,0.00,,2013-10-17 10:00:00,
2013-10-17 04:42:00,30.0,25.0,-100.00,West,268,2.0,3.0,82,0.00,,,0.00,,2013-10-17 10:42:00,
2013-10-17 04:53:00,30.0,25.0,-100.00,West,268,2.0,3.0,82,0.00,,,0.00,,2013-10-17 10:53:00,
2013-10-17 05:00:00,29.0,24.0,-100.00,SW,230,0.0,2.0,83,0.00,,,0.00,,2013-10-17 11:00:00,
2013-10-17 05:42:00,29.0,24.0,-100.00,SW,230,0.0,2.0,83,0.00,,,0.00,,2013-10-17 11:42:00,
2013-10-17 05:52:00,29.0,24.0,-100.00,SW,230,0.0,2.0,83,0.00,,,0.00,,2013-10-17 11:52:00,
2013-10-17 06:00:00,28.0,24.0,-100.00,WNW,300,0.0,1.0,85,0.00,,,0.00,,2013-10-17 12:00:00,
2013-10-17 06:42:00,28.0,24.0,-100.00,WNW,300,0.0,1.0,85,0.00,,,0.00,,2013-10-17 12:42:00,
2013-10-17 06:52:00,28.0,24.0,-100.00,WNW,300,0.0,1.0,85,0.00,,,0.00,,2013-10-17 12:52:00,
2013-10-17 07:00:00,29.0,24.0,-100.00,NW,323,0.0,0.0,84,0.00,,,0.00,,2013-10-17 13:00:00,
2013-10-17 07:42:00,29.0,24.0,-100.00,NW,323,0.0,0.0,84,0.00,,,0.00,,2013-10-17 13:42:00,
2013-10-17 07:52:00,29.0,24.0,-100.00,NW,323,0.0,0.0,84,0.00,,,0.00,,2013-10-17 13:52:00,
2013-10-17 08:00:00,29.0,25.0,-100.00,East,82,3.0,3.0,87,0.00,,,0.00,,2013-10-17 14:00:00,
2013-10-17 08:42:00,29.0,25.0,-100.00,East,82,3.0,3.0,87,0.00,,,0.00,,2013-10-17 14:42:00,
2013-10-17 08:52:00,29.0,25.0,-100.00,East,82,3.0,3.0,87,0.00,,,0.00,,2013-10-17 14:52:00,
2013-10-17 09:00:00,29.0,26.0,-100.00,East,100,3.0,6.0,89,0.00,,,0.00,,2013-10-17 15:00:00,
2013-10-17 09:53:00,29.0,26.0,-100.00,East,100,3.0,6.0,89,0.00,,,0.00,,2013-10-17 15:53:00,
2013-10-17 10:00:00,29.0,27.0,-100.00,ENE,65,5.0,7.0,92,0.00,,,0.00,,2013-10-17 16:00:00,
2013-10-17 10:53:00,29.0,27.0,-100.00,ENE,65,5.0,7.0,92,0.00,,,0.00,,2013-10-17 16:53:00,
2013-10-17 11:00:00,30.0,26.0,-100.00,East,86,3.0,4.0,85,0.00,,,0.00,,2013-10-17 17:00:00,
2013-10-17 11:42:00,30.0,26.0,-100.00,East,86,3.0,4.0,85,0.00,,,0.00,,2013-10-17 17:42:00,
2013-10-17 11:53:00,30.0,26.0,-100.00,East,86,3.0,4.0,85,0.00,,,0.00,,2013-10-17 17:53:00,
2013-10-17 12:00:00,32.0,26.0,-100.00,West,263,0.0,2.0,78,0.00,,,0.00,,2013-10-17 18:00:00,
2013-10-17 12:52:00,32.0,26.0,-100.00,West,263,0.0,2.0,78,0.00,,,0.00,,2013-10-17 18:52:00,
2013-10-17 13:00:00,34.0,27.0,-100.00,ENE,64,9.0,11.0,74,0.00,,,0.00,,2013-10-17 19:00:00,
2013-10-17 13:42:00,34.0,27.0,-100.00,ENE,64,9.0,11.0,74,0.00,,,0.00,,2013-10-17 19:42:00,
2013-10-17 13:53:00,34.0,27.0,-100.00,ENE,64,9.0,11.0,74,0.00,,,0.00,,2013-10-17 19:53:00,
2013-10-17 14:00:00,33.0,29.0,-100.00,East,92,2.0,4.0,85,0.00,,,0.00,,2013-10-17 20:00:00,
2013-10-17 14:42:00,33.0,29.0,-100.00,East,92,2.0,4.0,85,0.00,,,0.00,,2013-10-17 20:42:00,
2013-10-17 14:52:00,33.0,29.0,-100.00,East,92,2.0,4.0,85,0.00,,,0.00,,2013-10-17 20:52:00,
2013-10-17 15:00:00,33.0,31.0,-100.00,ENE,71,6.0,7.0,90,0.00,,,0.00,,2013-10-17 21:00:00,
2013-10-17 15:44:00,33.0,31.0,-100.00,ENE,71,6.0,7.0,90,0.00,,,0.00,,2013-10-17 21:44:00,
2013-10-17 15:54:00,33.0,31.0,-100.00,ENE,71,6.0,7.0,90,0.00,,,0.00,,2013-10-17 21:54:00,
2013-10-17 16:00:00,34.0,29.0,-100.00,ENE,69,4.0,6.0,82,0.00,,,0.00,,2013-10-17 22:00:00,
2013-10-17 16:53:00,34.0,29.0,-100.00,ENE,69,4.0,6.0,82,0.00,,,0.00,,2013-10-17 22:53:00,
2013-10-17 17:00:00,31.0,30.0,-100.00,East,90,7.0,9.0,95,0.00,,,0.00,,2013-10-17 23:00:00,
2013-10-17 17:43:00,31.0,30.0,-100.00,East,90,7.0,9.0,95,0.00,,,0.00,,2013-10-17 23:43:00,
2013-10-17 17:53:00,31.0,30.0,-100.00,East,90,7.0,9.0,95,0.00,,,0.00,,2013-10-17 23:53:00,
2013-10-17 18:00:00,30.0,30.0,-100.00,ENE,77,5.0,7.0,98,0.00,,,0.00,,2013-10-18 00:00:00,
2013-10-17 18:42:00,30.0,30.0,-100.00,ENE,77,5.0,7.0,98,0.00,,,0.00,,2013-10-18 00:42:00,
2013-10-17 18:53:00,30.0,30.0,-100.00,ENE,77,5.0,7.0,98,0.00,,,0.00,,2013-10-18 00:53:00,
2013-10-17 19:00:00,28.0,27.0,-100.00,ENE,72,9.0,12.0,97,0.00,,,0.00,,2013-10-18 01:00:00,
2013-10-17 19:42:00,28.0,27.0,-100.00,ENE,72,9.0,12.0,97,0.00,,,0.00,,2013-10-18 01:42:00,
2013-10-17 19:52:00,28.0,27.0,-100.00,ENE,72,9.0,12.0,97,0.00,,,0.00,,2013-10-18 01:52:00,
2013-10-17 20:00:00,27.0,26.0,-100.00,ENE,63,4.0,5.0,96,0.00,,,0.00,,2013-10-18 02:00:00,
2013-10-17 20:42:00,27.0,26.0,-100.00,ENE,63,4.0,5.0,96,0.00,,,0.00,,2013-10-18 02:42:00,
2013-10-17 20:52:00,27.0,26.0,-100.00,ENE,63,4.0,5.0,96,0.00,,,0.00,,2013-10-18 02:52:00,
2013-10-17 21:00:00,27.0,26.0,-100.00,ENE,66,2.0,3.0,96,0.00,,,0.00,,2013-10-18 03:00:00,
2013-10-17 21:44:00,27.0,26.0,-100.00,ENE,66,2.0,3.0,96,0.00,,,0.00,,2013-10-18 03:44:00,
2013-10-17 21:55:00,27.0,26.0,-100.00,ENE,66,2.0,3.0,96,0.00,,,0.00,,2013-10-18 03:55:00,
2013-10-17 22:00:00,27.0,26.0,-100.00,South,177,1.0,1.0,96,0.00,,,0.00,,2013-10-18 04:00:00,
2013-10-17 22:53:00,27.0,26.0,-100.00,South,177,1.0,1.0,96,0.00,,,0.00,,2013-10-18 04:53:00,
2013-10-17 23:00:00,26.0,25.0,-100.00,NNE,23,3.0,4.0,95,0.00,,,0.00,,2013-10-18 05:00:00,
2013-10-17 23:43:00,26.0,25.0,-100.00,NNE,23,3.0,4.0,95,0.00,,,0.00,,2013-10-18 05:43:00,
2013-10-17 23:52:00,26.0,25.0,-100.00,NNE,23,3.0,4.0,95,0.00,,,0.00,,2013-10-18 05:52:00,